Time,TemperatureF,DewpointF,PressureIn,WindDirection,WindDirectionDegrees,WindSpeedMPH,WindSpeedGustMPH,Humidity,HourlyPrecipIn,Conditions,Clouds,dailyrainin,SoftwareType,DateUTC
2013-08-31 00:14:00,71.0,68.0,29.85,SW,235,0.0,-999.0,89,-99.99,,,-99.99,,2013-08-31 04:14:00,
2013-08-31 00:24:00,71.0,68.0,29.85,SW,231,0.0,-999.0,89,-99.99,,,-99.99,,2013-08-31 04:24:00,
2013-08-31 00:54:00,71.0,68.0,29.84,WSW,237,0.0,-999.0,89,-99.99,,,-99.99,,2013-08-31 04:54:00,
2013-08-31 01:13:00,70.0,67.0,29.84,SW,235,0.0,-999.0,90,-99.99,,,-99.99,,2013-08-31 05:13:00,
2013-08-31 01:23:00,70.0,67.0,29.84,SSW,203,0.0,-999.0,90,-99.99,,,-99.99,,2013-08-31 05:23:00,
2013-08-31 01:42:00,70.0,67.0,29.84,SSW,202,0.0,-999.0,91,-99.99,,,-99.99,,2013-08-31 05:42:00,
2013-08-31 01:53:00,70.0,67.0,29.84,SE,145,0.0,-999.0,91,-99.99,,,-99.99,,2013-08-31 05:53:00,
2013-08-31 02:12:00,70.0,67.0,29.84,SSE,148,0.0,-999.0,91,-99.99,,,-99.99,,2013-08-31 06:12:00,
2013-08-31 02:22:00,70.0,68.0,29.84,SSE,150,0.0,-999.0,92,-99.99,,,-99.99,,2013-08-31 06:22:00,
2013-08-31 02:52:00,70.0,68.0,29.83,SSE,156,0.0,-999.0,92,-99.99,,,-99.99,,2013-08-31 06:52:00,
2013-08-31 03:12:00,70.0,68.0,29.83,SSE,155,0.0,-999.0,92,-99.99,,,-99.99,,2013-08-31 07:12:00,
2013-08-31 03:22:00,70.0,68.0,29.82,SSE,155,0.0,-999.0,93,-99.99,,,-99.99,,2013-08-31 07:22:00,
2013-08-31 03:52:00,70.0,68.0,29.82,WSW,243,0.0,-999.0,93,-99.99,,,-99.99,,2013-08-31 07:52:00,
2013-08-31 04:12:00,70.0,68.0,29.82,SSW,204,0.0,-999.0,93,-99.99,,,-99.99,,2013-08-31 08:12:00,
2013-08-31 04:22:00,70.0,68.0,29.82,SSW,209,0.0,-999.0,93,-99.99,,,-99.99,,2013-08-31 08:22:00,
2013-08-31 04:52:00,70.0,68.0,29.82,SW,220,0.0,-999.0,93,-99.99,,,-99.99,,2013-08-31 08:52:00,
2013-08-31 05:12:00,70.0,68.0,29.81,SW,220,0.0,-999.0,93,-99.99,,,-99.99,,2013-08-31 09:12:00,
2013-08-31 05:23:00,70.0,68.0,29.82,SW,220,0.0,-999.0,93,-99.99,,,-99.99,,2013-08-31 09:23:00,
2013-08-31 05:53:00,69.0,67.0,29.82,SW,220,0.0,-999.0,93,-99.99,,,-99.99,,2013-08-31 09:53:00,
2013-08-31 06:12:00,69.0,67.0,29.82,SW,220,0.0,-999.0,93,-99.99,,,-99.99,,2013-08-31 10:12:00,
2013-08-31 06:23:00,69.0,67.0,29.82,SW,226,0.0,-999.0,93,-99.99,,,-99.99,,2013-08-31 10:23:00,
2013-08-31 06:43:00,69.0,67.0,29.82,SW,228,0.0,-999.0,93,-99.99,,,-99.99,,2013-08-31 10:43:00,
2013-08-31 06:53:00,69.0,67.0,29.82,SW,228,0.0,-999.0,93,-99.99,,,-99.99,,2013-08-31 10:53:00,
2013-08-31 07:12:00,69.0,67.0,29.83,SW,228,0.0,-999.0,93,-99.99,,,-99.99,,2013-08-31 11:12:00,
2013-08-31 07:22:00,69.0,67.0,29.83,SW,228,0.0,-999.0,94,-99.99,,,-99.99,,2013-08-31 11:22:00,
2013-08-31 07:52:00,70.0,68.0,29.83,SW,228,0.0,-999.0,94,-99.99,,,-99.99,,2013-08-31 11:52:00,
2013-08-31 08:12:00,70.0,68.0,29.82,SW,227,0.0,-999.0,93,-99.99,,,-99.99,,2013-08-31 12:12:00,
2013-08-31 08:22:00,70.0,68.0,29.82,SW,222,0.0,-999.0,93,-99.99,,,-99.99,,2013-08-31 12:22:00,
2013-08-31 08:42:00,71.0,69.0,29.83,SW,233,0.0,-999.0,92,-99.99,,,-99.99,,2013-08-31 12:42:00,
2013-08-31 08:52:00,71.0,68.0,29.83,WSW,243,0.0,-999.0,91,-99.99,,,-99.99,,2013-08-31 12:52:00,
2013-08-31 09:11:00,71.0,68.0,29.83,WSW,244,0.0,-999.0,90,-99.99,,,-99.99,,2013-08-31 13:11:00,
2013-08-31 09:22:00,72.0,69.0,29.83,WSW,247,0.0,-999.0,90,-99.99,,,-99.99,,2013-08-31 13:22:00,
2013-08-31 09:42:00,72.0,69.0,29.83,WSW,240,0.0,-999.0,89,-99.99,,,-99.99,,2013-08-31 13:42:00,
2013-08-31 09:52:00,72.0,69.0,29.83,SW,233,0.0,-999.0,89,-99.99,,,-99.99,,2013-08-31 13:52:00,
2013-08-31 10:12:00,72.0,69.0,29.83,SW,225,0.0,-999.0,89,-99.99,,,-99.99,,2013-08-31 14:12:00,
2013-08-31 10:22:00,73.0,70.0,29.83,SW,226,0.0,-999.0,89,-99.99,,,-99.99,,2013-08-31 14:22:00,
2013-08-31 10:52:00,74.0,70.0,29.83,West,261,0.0,-999.0,86,-99.99,,,-99.99,,2013-08-31 14:52:00,
2013-08-31 11:12:00,75.0,70.0,29.83,SSW,209,0.0,-999.0,85,-99.99,,,-99.99,,2013-08-31 15:12:00,
2013-08-31 11:23:00,75.0,70.0,29.83,WSW,245,0.0,-999.0,84,-99.99,,,-99.99,,2013-08-31 15:23:00,
2013-08-31 11:55:00,76.0,71.0,29.83,WSW,245,0.0,-999.0,84,-99.99,,,-99.99,,2013-08-31 15:55:00,
2013-08-31 12:14:00,76.0,71.0,29.82,WSW,247,0.0,-999.0,84,-99.99,,,-99.99,,2013-08-31 16:14:00,
2013-08-31 12:25:00,76.0,72.0,29.82,WSW,247,0.0,-999.0,86,-99.99,,,-99.99,,2013-08-31 16:25:00,
2013-08-31 12:44:00,76.0,72.0,29.82,WSW,247,0.0,-999.0,86,-99.99,,,-99.99,,2013-08-31 16:44:00,
2013-08-31 12:53:00,76.0,72.0,29.82,WSW,247,0.0,-999.0,87,-99.99,,,-99.99,,2013-08-31 16:53:00,
2013-08-31 13:13:00,76.0,72.0,29.82,WSW,247,0.0,-999.0,87,-99.99,,,-99.99,,2013-08-31 17:13:00,
2013-08-31 13:23:00,77.0,73.0,29.82,WSW,247,0.0,-999.0,87,-99.99,,,-99.99,,2013-08-31 17:23:00,
2013-08-31 13:43:00,78.0,72.0,29.81,WSW,245,0.0,-999.0,83,-99.99,,,-99.99,,2013-08-31 17:43:00,
2013-08-31 13:53:00,79.0,73.0,29.80,WSW,245,0.0,-999.0,82,-99.99,,,-99.99,,2013-08-31 17:53:00,
2013-08-31 14:13:00,80.0,74.0,29.80,WSW,244,0.0,-999.0,81,-99.99,,,-99.99,,2013-08-31 18:13:00,
2013-08-31 14:22:00,80.0,73.0,29.80,SW,228,0.0,-999.0,79,-99.99,,,-99.99,,2013-08-31 18:22:00,
2013-08-31 14:52:00,80.0,74.0,29.80,SSW,200,0.0,-999.0,81,-99.99,,,-99.99,,2013-08-31 18:52:00,
2013-08-31 15:12:00,79.0,73.0,29.80,SSW,200,0.0,-999.0,81,-99.99,,,-99.99,,2013-08-31 19:12:00,
2013-08-31 15:22:00,79.0,72.0,29.80,SSW,197,0.0,-999.0,80,-99.99,,,-99.99,,2013-08-31 19:22:00,
2013-08-31 15:52:00,80.0,73.0,29.80,SSW,210,0.0,-999.0,80,-99.99,,,-99.99,,2013-08-31 19:52:00,
2013-08-31 16:12:00,80.0,73.0,29.79,SW,218,0.0,-999.0,79,-99.99,,,-99.99,,2013-08-31 20:12:00,
2013-08-31 16:22:00,80.0,72.0,29.78,SE,135,0.0,-999.0,78,-99.99,,,-99.99,,2013-08-31 20:22:00,
2013-08-31 16:42:00,81.0,73.0,29.78,South,191,1.0,-999.0,76,-99.99,,,-99.99,,2013-08-31 20:42:00,
2013-08-31 16:53:00,81.0,72.0,29.78,SSW,198,1.0,-999.0,75,-99.99,,,-99.99,,2013-08-31 20:53:00,
2013-08-31 17:12:00,80.0,72.0,29.78,South,179,0.0,-999.0,78,-99.99,,,-99.99,,2013-08-31 21:12:00,
2013-08-31 17:22:00,79.0,72.0,29.79,West,276,0.0,-999.0,80,-99.99,,,-99.99,,2013-08-31 21:22:00,
2013-08-31 17:54:00,77.0,71.0,29.79,SW,217,0.0,-999.0,82,-99.99,,,-99.99,,2013-08-31 21:54:00,
2013-08-31 18:13:00,77.0,71.0,29.79,SW,218,0.0,-999.0,83,-99.99,,,-99.99,,2013-08-31 22:13:00,
2013-08-31 18:24:00,77.0,71.0,29.78,SW,218,0.0,-999.0,83,-99.99,,,-99.99,,2013-08-31 22:24:00,
2013-08-31 18:53:00,76.0,71.0,29.79,SW,219,0.0,-999.0,85,-99.99,,,-99.99,,2013-08-31 22:53:00,
2013-08-31 19:23:00,75.0,71.0,29.79,SW,223,0.0,-999.0,86,-99.99,,,-99.99,,2013-08-31 23:23:00,
2013-08-31 19:52:00,74.0,71.0,29.78,SW,221,0.0,-999.0,89,-99.99,,,-99.99,,2013-08-31 23:52:00,
2013-08-31 20:11:00,74.0,71.0,29.78,SW,221,0.0,-999.0,89,-99.99,,,-99.99,,2013-09-01 00:11:00,
2013-08-31 20:22:00,74.0,71.0,29.79,SW,221,0.0,-999.0,90,-99.99,,,-99.99,,2013-09-01 00:22:00,
2013-08-31 20:42:00,74.0,71.0,29.79,SW,221,0.0,-999.0,90,-99.99,,,-99.99,,2013-09-01 00:42:00,
2013-08-31 20:52:00,73.0,70.0,29.79,SW,222,0.0,-999.0,90,-99.99,,,-99.99,,2013-09-01 00:52:00,
2013-08-31 21:11:00,73.0,70.0,29.80,SW,222,0.0,-999.0,90,-99.99,,,-99.99,,2013-09-01 01:11:00,
2013-08-31 21:22:00,73.0,70.0,29.80,SW,224,0.0,-999.0,91,-99.99,,,-99.99,,2013-09-01 01:22:00,
2013-08-31 21:42:00,73.0,70.0,29.82,SW,224,0.0,-999.0,91,-99.99,,,-99.99,,2013-09-01 01:42:00,
2013-08-31 21:52:00,72.0,69.0,29.82,SW,224,0.0,-999.0,91,-99.99,,,-99.99,,2013-09-01 01:52:00,
2013-08-31 22:12:00,72.0,70.0,29.83,SW,224,0.0,-999.0,92,-99.99,,,-99.99,,2013-09-01 02:12:00,
2013-08-31 22:22:00,72.0,70.0,29.83,SW,224,0.0,-999.0,92,-99.99,,,-99.99,,2013-09-01 02:22:00,
2013-08-31 22:43:00,72.0,70.0,29.82,SW,224,0.0,-999.0,93,-99.99,,,-99.99,,2013-09-01 02:43:00,
2013-08-31 22:53:00,72.0,70.0,29.82,SW,224,0.0,-999.0,93,-99.99,,,-99.99,,2013-09-01 02:53:00,
2013-08-31 23:23:00,72.0,70.0,29.83,SW,235,0.0,-999.0,93,-99.99,,,-99.99,,2013-09-01 03:23:00,
2013-08-31 23:54:00,72.0,70.0,29.83,SW,235,0.0,-999.0,93,-99.99,,,-99.99,,2013-09-01 03:54:00,